QPF
0.23 0.08 0.04 0.02 0.00 0.00 0.00 0.00 0.00 0.00 0.00 0.00 0.00 0.00 0.00 0.00 0.00 0.00 0.00 0.00 0.00 0.00 0.00 0.00 0.00 0.00 0.01 0.01 0.00 0.00 0.02 0.00 0.00 0.00 0.02 0.01 0.01 0.02 0.02 0.01 0.02 0.01
0.17 0.03 0.03 0.01 0.01 0.00 0.00 0.00 0.00 0.00 0.00 0.00 0.00 0.00 0.00 0.00 0.00 0.00 0.00 0.00 0.00 0.00 0.00 0.00 0.00 0.00 0.00 0.00 0.01 0.00 0.02 0.00 0.01 0.01 0.01 0.00 0.00 0.00 0.00 0.02 0.01 0.07
0.04 0.03 0.04 0.02 0.00 0.00 0.00 0.00 0.00 0.00 0.00 0.00 0.00 0.00 0.00 0.00 0.00 0.00 0.00 0.00 0.00 0.00 0.00 0.00 0.00 0.00 0.00 0.00 0.00 0.00 0.00 0.01 0.00 0.02 0.03 0.01 0.01 0.00 0.04 0.00 0.01 0.02
0.03 0.03 0.03 0.02 0.01 0.00 0.00 0.01 0.00 0.00 0.00 0.00 0.00 0.00 0.00 0.00 0.00 0.00 0.00 0.00 0.00 0.00 0.00 0.00 0.00 0.00 0.00 0.00 0.00 0.00 0.00 0.00 0.00 0.00 0.00 0.01 0.02 0.01 0.01 0.00 0.01 0.01
0.03 0.02 0.02 0.04 0.02 0.00 0.00 0.00 0.00 0.00 0.00 0.00 0.00 0.00 0.00 0.00 0.00 0.00 0.00 0.00 0.00 0.00 0.00 0.00 0.00 0.00 0.00 0.00 0.00 0.00 0.00 0.00 0.00 0.00 0.00 0.00 0.00 0.00 0.02 0.01 0.01 0.01
0.01 0.01 0.00 0.02 0.01 0.00 0.00 0.00 0.00 0.00 0.00 0.00 0.00 0.00 0.00 0.00 0.00 0.00 0.00 0.00 0.00 0.00 0.00 0.00 0.00 0.00 0.00 0.00 0.00 0.00 0.00 0.00 0.00 0.00 0.00 0.00 0.00 0.02 0.04 0.03 0.01 0.01
0.01 0.00 0.00 0.00 0.00 0.00 0.00 0.00 0.00 0.00 0.00 0.00 0.00 0.00 0.00 0.00 0.00 0.00 0.00 0.00 0.00 0.00 0.00 0.00 0.00 0.00 0.00 0.00 0.00 0.00 0.00 0.00 0.00 0.00 0.00 0.00 0.00 0.00 0.02 0.01 0.03 0.00
0.00 0.00 0.00 0.00 0.00 0.00 0.00 0.00 0.00 0.00 0.00 0.00 0.00 0.00 0.00 0.00 0.00 0.00 0.00 0.00 0.00 0.00 0.00 0.00 0.00 0.00 0.00 0.00 0.00 0.00 0.00 0.00 0.00 0.00 0.00 0.00 0.00 0.00 0.01 0.00 0.01 0.01
0.02 0.01 0.01 0.00 0.00 0.00 0.00 0.00 0.00 0.00 0.00 0.00 0.00 0.00 0.00 0.00 0.00 0.00 0.00 0.00 0.00 0.00 0.00 0.00 0.00 0.00 0.00 0.00 0.00 0.00 0.00 0.00 0.00 0.00 0.00 0.00 0.00 0.00 0.01 0.01 0.01 0.00
0.08 0.03 0.00 0.00 0.00 0.00 0.00 0.00 0.00 0.00 0.00 0.00 0.00 0.00 0.00 0.00 0.00 0.00 0.00 0.00 0.00 0.00 0.00 0.00 0.00 0.00 0.00 0.00 0.00 0.00 0.00 0.00 0.00 0.00 0.00 0.00 0.00 0.00 0.00 0.00 0.00 0.00
0.03 0.05 0.02 0.00 0.00 0.00 0.01 0.00 0.00 0.00 0.00 0.00 0.00 0.00 0.00 0.00 0.00 0.00 0.00 0.00 0.00 0.00 0.00 0.00 0.00 0.00 0.00 0.00 0.00 0.00 0.00 0.00 0.00 0.00 0.00 0.00 0.00 0.00 0.00 0.00 0.00 0.00
0.11 0.19 0.15 0.07 0.00 0.00 0.00 0.00 0.00 0.00 0.00 0.00 0.00 0.00 0.00 0.00 0.00 0.00 0.00 0.00 0.00 0.00 0.00 0.00 0.00 0.00 0.00 0.00 0.00 0.00 0.00 0.00 0.00 0.00 0.00 0.00 0.00 0.00 0.00 0.00 0.00 0.00
0.06 0.09 0.08 0.03 0.00 0.00 0.00 0.00 0.00 0.00 0.00 0.00 0.00 0.00 0.00 0.00 0.00 0.00 0.00 0.00 0.00 0.00 0.00 0.00 0.00 0.00 0.00 0.00 0.00 0.00 0.00 0.00 0.00 0.00 0.00 0.00 0.00 0.00 0.00 0.00 0.00 0.00
0.00 0.01 0.01 0.00 0.00 0.00 0.00 0.00 0.01 0.00 0.00 0.00 0.00 0.00 0.00 0.00 0.00 0.00 0.00 0.00 0.00 0.00 0.00 0.00 0.00 0.00 0.00 0.00 0.00 0.00 0.00 0.00 0.00 0.00 0.00 0.00 0.00 0.00 0.00 0.00 0.00 0.00
0.01 0.02 0.03 0.01 0.00 0.00 0.00 0.00 0.00 0.00 0.00 0.00 0.00 0.00 0.00 0.00 0.00 0.00 0.00 0.00 0.00 0.00 0.00 0.00 0.00 0.00 0.00 0.00 0.00 0.00 0.00 0.00 0.00 0.00 0.00 0.00 0.00 0.00 0.00 0.00 0.00 0.00
0.00 0.01 0.01 0.02 0.01 0.00 0.00 0.00 0.00 0.00 0.01 0.00 0.00 0.00 0.00 0.00 0.00 0.00 0.00 0.00 0.00 0.00 0.00 0.00 0.00 0.00 0.00 0.00 0.00 0.00 0.00 0.00 0.00 0.00 0.00 0.00 0.00 0.00 0.00 0.00 0.00 0.00
0.00 0.00 0.01 0.01 0.02 0.01 0.00 0.00 0.00 0.01 0.00 0.00 0.00 0.00 0.00 0.00 0.00 0.00 0.00 0.00 0.00 0.00 0.00 0.00 0.00 0.00 0.00 0.00 0.00 0.00 0.00 0.00 0.00 0.00 0.00 0.00 0.00 0.00 0.00 0.00 0.00 0.00
0.09 0.21 0.07 0.03 0.01 0.01 0.01 0.00 0.00 0.00 0.00 0.00 0.00 0.00 0.00 0.00 0.00 0.00 0.00 0.00 0.00 0.00 0.00 0.01 0.00 0.00 0.00 0.00 0.00 0.00 0.00 0.00 0.00 0.00 0.00 0.00 0.00 0.00 0.00 0.00 0.00 0.00
0.10 0.01 0.04 0.10 0.02 0.09 0.29 0.05 0.04 0.02 0.02 0.01 0.00 0.00 0.00 0.00 0.00 0.00 0.00 0.00 0.00 0.00 0.00 0.00 0.01 0.00 0.00 0.00 0.00 0.00 0.00 0.00 0.00 0.00 0.00 0.00 0.00 0.00 0.00 0.00 0.00 0.00
0.24 0.22 0.18 0.18 0.17 0.14 0.09 0.18 0.35 0.10 0.12 0.07 0.04 0.01 0.00 0.00 0.00 0.00 0.00 0.00 0.01 0.02 0.02 0.00 0.00 0.00 0.00 0.00 0.00 0.00 0.00 0.00 0.00 0.00 0.00 0.00 0.00 0.00 0.00 0.00 0.00 0.00
0.18 0.11 0.20 0.11 0.14 0.13 0.27 0.25 0.14 0.16 0.16 0.17 0.12 0.07 0.04 0.02 0.02 0.01 0.00 0.00 0.00 0.00 0.00 0.00 0.00 0.00 0.00 0.00 0.00 0.00 0.00 0.00 0.00 0.00 0.00 0.00 0.00 0.00 0.00 0.00 0.00 0.00
0.08 0.07 0.06 0.13 0.14 0.12 0.19 0.23 0.23 0.11 0.14 0.09 0.09 0.08 0.05 0.04 0.03 0.03 0.02 0.01 0.01 0.00 0.00 0.01 0.01 0.01 0.01 0.00 0.00 0.01 0.00 0.00 0.00 0.00 0.00 0.00 0.00 0.00 0.00 0.00 0.00 0.00
0.07 0.06 0.02 0.02 0.06 0.05 0.02 0.06 0.03 0.06 0.06 0.06 0.03 0.02 0.02 0.02 0.01 0.01 0.01 0.00 0.00 0.00 0.00 0.00 0.01 0.01 0.01 0.01 0.01 0.01 0.01 0.00 0.00 0.00 0.00 0.00 0.00 0.00 0.00 0.00 0.00 0.01
0.03 0.04 0.08 0.03 0.04 0.06 0.01 0.01 0.01 0.00 0.00 0.00 0.00 0.00 0.00 0.01 0.00 0.00 0.00 0.00 0.00 0.00 0.00 0.00 0.00 0.00 0.00 0.00 0.00 0.01 0.00 0.00 0.00 0.00 0.00 0.00 0.00 0.00 0.00 0.00 0.01 0.00
0.03 0.02 0.05 0.02 0.01 0.00 0.03 0.02 0.00 0.00 0.00 0.00 0.00 0.00 0.01 0.01 0.00 0.00 0.00 0.00 0.00 0.00 0.00 0.00 0.00 0.00 0.00 0.00 0.00 0.00 0.00 0.00 0.00 0.00 0.00 0.00 0.00 0.00 0.00 0.00 0.00 0.02
0.01 0.00 0.00 0.00 0.00 0.00 0.00 0.01 0.00 0.00 0.00 0.00 0.00 0.00 0.00 0.00 0.00 0.00 0.03 0.06 0.01 0.00 0.00 0.00 0.00 0.01 0.01 0.00 0.00 0.00 0.00 0.00 0.00 0.00 0.00 0.00 0.00 0.00 0.00 0.00 0.00 0.01
MSLP
1015.39 1015.74 1016.15 1016.27 1016.27 1016.07 1016.15 1016.30 1016.39 1016.59 1016.66 1016.59 1016.78 1016.91 1017.03 1017.07 1017.10 1017.18 1017.22 1017.27 1017.30 1017.42 1017.47 1017.59 1017.66 1017.86 1017.91 1017.95 1018.03 1018.03 1018.15 1018.15 1018.27 1018.22 1018.39 1018.62 1018.83 1018.98 1019.18 1019.51 1019.59 1019.42
1015.15 1015.62 1015.71 1016.10 1016.10 1015.86 1016.03 1016.10 1016.34 1016.47 1016.59 1016.59 1016.54 1016.74 1016.83 1016.98 1017.18 1017.22 1017.39 1017.42 1017.47 1017.47 1017.47 1017.62 1017.74 1017.91 1017.98 1018.10 1018.10 1018.15 1018.34 1018.22 1018.42 1018.18 1018.47 1018.62 1018.66 1018.78 1018.95 1019.22 1019.51 1019.39
1014.95 1015.27 1015.54 1016.10 1016.03 1015.98 1016.10 1016.18 1016.22 1016.34 1016.47 1016.51 1016.51 1016.66 1016.78 1016.98 1017.27 1017.39 1017.42 1017.42 1017.34 1017.51 1017.59 1017.66 1017.78 1017.86 1017.91 1018.07 1018.18 1018.22 1018.42 1018.51 1018.54 1018.42 1018.54 1018.59 1018.62 1018.74 1018.86 1018.98 1019.27 1019.42
1014.83 1014.95 1015.30 1015.74 1015.83 1015.91 1015.98 1016.18 1016.22 1016.30 1016.39 1016.54 1016.71 1016.66 1016.91 1017.10 1017.27 1017.42 1017.42 1017.30 1017.47 1017.71 1017.66 1017.71 1017.86 1017.83 1017.78 1018.03 1018.18 1018.34 1018.42 1018.47 1018.47 1018.47 1018.59 1018.66 1018.71 1018.71 1018.86 1018.86 1018.95 1019.27
1014.51 1014.74 1015.03 1015.42 1015.66 1015.66 1015.91 1016.18 1016.30 1016.30 1016.47 1016.54 1016.62 1016.78 1017.03 1017.22 1017.30 1017.39 1017.39 1017.51 1017.62 1017.83 1017.83 1017.86 1017.83 1017.86 1017.91 1018.03 1018.10 1018.42 1018.39 1018.42 1018.47 1018.42 1018.54 1018.74 1018.62 1018.74 1018.83 1018.83 1019.07 1019.15
1014.18 1014.51 1014.86 1015.34 1015.54 1015.71 1015.98 1016.15 1016.27 1016.30 1016.42 1016.62 1016.83 1016.86 1016.98 1017.15 1017.22 1017.30 1017.34 1017.66 1017.74 1017.83 1017.98 1017.91 1017.95 1018.03 1017.95 1018.03 1018.18 1018.34 1018.34 1018.34 1018.34 1018.34 1018.54 1018.71 1018.74 1018.71 1018.71 1018.83 1019.03 1019.18
1014.15 1014.42 1014.91 1015.18 1015.27 1015.42 1015.78 1015.98 1016.15 1016.27 1016.42 1016.59 1016.71 1016.91 1016.98 1017.15 1017.18 1017.27 1017.30 1017.51 1017.66 1017.83 1017.91 1018.03 1018.03 1018.10 1018.03 1018.07 1018.22 1018.39 1018.30 1018.39 1018.34 1018.18 1018.30 1018.51 1018.66 1018.91 1018.86 1018.91 1019.15 1019.22
1014.03 1014.39 1014.78 1014.98 1015.15 1015.42 1015.74 1015.98 1016.10 1016.22 1016.51 1016.59 1016.86 1016.86 1016.91 1017.03 1017.03 1017.18 1017.22 1017.39 1017.59 1017.71 1017.86 1017.95 1018.03 1018.03 1018.07 1018.10 1018.30 1018.51 1018.62 1018.47 1018.39 1018.34 1018.34 1018.62 1018.78 1018.95 1019.07 1019.10 1019.18 1019.18
1014.07 1014.39 1014.66 1014.95 1015.18 1015.42 1015.78 1015.95 1016.10 1016.27 1016.42 1016.62 1016.78 1016.86 1016.83 1016.83 1016.91 1017.10 1017.22 1017.34 1017.54 1017.71 1017.83 1017.98 1017.98 1018.10 1018.15 1018.18 1018.42 1018.66 1018.74 1018.66 1018.51 1018.42 1018.71 1018.86 1019.03 1019.15 1019.10 1019.10 1019.27 1019.42
1014.18 1014.27 1014.39 1014.71 1015.03 1015.27 1015.71 1015.83 1016.03 1016.30 1016.39 1016.59 1016.71 1016.78 1016.86 1016.83 1016.83 1017.07 1017.18 1017.34 1017.59 1017.71 1017.86 1017.98 1018.03 1018.18 1018.22 1018.27 1018.51 1018.62 1018.74 1018.86 1018.83 1018.83 1018.86 1018.78 1018.83 1019.03 1019.18 1019.27 1019.39 1019.59
1014.15 1014.15 1014.39 1014.62 1014.91 1015.18 1015.66 1015.86 1016.03 1016.27 1016.39 1016.54 1016.66 1016.83 1016.83 1016.95 1017.03 1017.03 1017.22 1017.39 1017.66 1017.74 1017.91 1017.98 1018.03 1018.18 1018.27 1018.39 1018.42 1018.59 1018.66 1018.86 1018.91 1018.91 1018.86 1018.78 1018.71 1018.78 1019.15 1019.27 1019.54 1019.62
1014.51 1014.86 1015.39 1014.91 1015.03 1015.18 1015.66 1015.83 1015.95 1016.18 1016.42 1016.51 1016.71 1016.98 1016.98 1017.10 1017.22 1017.15 1017.22 1017.39 1017.62 1017.59 1017.71 1017.95 1017.98 1018.10 1018.18 1018.30 1018.51 1018.62 1018.74 1018.83 1018.83 1018.91 1018.86 1018.83 1018.91 1018.91 1018.95 1019.15 1019.34 1019.51
1014.74 1015.03 1014.78 1014.66 1014.74 1015.18 1015.51 1015.74 1015.95 1016.15 1016.34 1016.54 1016.66 1016.83 1017.10 1017.22 1017.18 1017.27 1017.27 1017.30 1017.47 1017.47 1017.66 1017.86 1017.95 1018.07 1018.18 1018.39 1018.54 1018.71 1018.86 1018.95 1019.10 1019.10 1019.10 1019.15 1019.07 1018.98 1018.98 1019.10 1019.18 1019.34
1014.27 1014.34 1014.27 1014.47 1014.74 1015.10 1015.51 1015.78 1016.03 1016.30 1016.39 1016.51 1016.62 1016.91 1017.15 1017.18 1017.30 1017.39 1017.34 1017.34 1017.34 1017.51 1017.62 1017.74 1018.07 1018.18 1018.22 1018.39 1018.47 1018.71 1018.91 1019.15 1019.18 1019.27 1019.27 1019.30 1019.22 1019.18 1019.22 1019.27 1019.22 1019.34
1014.22 1014.39 1014.47 1014.59 1014.83 1015.15 1015.62 1015.83 1016.10 1016.30 1016.39 1016.54 1016.78 1017.03 1017.15 1017.15 1017.27 1017.39 1017.51 1017.42 1017.54 1017.66 1017.78 1017.98 1018.18 1018.78 1019.51 1019.66 1019.07 1018.66 1018.91 1019.15 1019.22 1019.27 1019.39 1019.51 1019.51 1019.47 1019.51 1019.42 1019.47 1019.51
1014.27 1014.66 1014.74 1014.78 1014.98 1015.27 1015.54 1015.83 1016.10 1016.42 1016.54 1016.66 1016.83 1017.03 1017.15 1017.27 1017.39 1017.47 1017.59 1017.59 1017.83 1017.86 1018.07 1018.71 1019.42 1020.10 1020.91 1020.51 1020.18 1019.86 1019.15 1018.91 1019.10 1019.18 1019.34 1019.47 1019.59 1019.66 1019.74 1019.59 1019.51 1019.62
1014.54 1014.86 1015.03 1015.22 1015.30 1015.39 1015.66 1015.98 1016.30 1016.59 1016.78 1016.91 1016.98 1017.22 1017.47 1017.51 1017.59 1017.66 1017.78 1017.83 1017.91 1018.39 1019.15 1019.59 1020.27 1021.10 1021.10 1020.54 1020.22 1020.22 1019.83 1019.15 1019.22 1019.30 1019.30 1019.34 1019.51 1019.62 1019.83 1019.83 1019.74 1019.66
1014.59 1014.86 1015.22 1015.54 1015.71 1015.86 1016.10 1016.42 1016.62 1016.91 1017.27 1017.47 1017.74 1017.95 1018.03 1018.03 1018.22 1018.47 1018.66 1018.62 1019.03 1019.30 1019.71 1020.27 1020.78 1021.39 1021.07 1020.95 1020.62 1020.42 1020.30 1019.91 1019.27 1019.27 1019.42 1019.51 1019.51 1019.62 1019.54 1019.59 1019.71 1019.71
1015.18 1015.54 1015.91 1016.27 1016.62 1017.10 1017.42 1017.34 1017.34 1017.66 1018.03 1018.30 1018.59 1018.66 1018.71 1018.91 1018.95 1018.98 1019.22 1019.54 1019.86 1020.34 1020.71 1021.07 1021.47 1021.78 1021.62 1021.34 1021.10 1020.86 1020.71 1020.47 1019.71 1019.39 1019.42 1019.54 1019.51 1019.54 1019.54 1019.59 1019.66 1019.83
1015.91 1016.18 1016.62 1017.07 1017.39 1017.83 1018.22 1018.62 1018.71 1018.83 1018.98 1018.95 1018.95 1019.15 1019.39 1019.47 1019.34 1019.47 1019.71 1020.10 1020.59 1020.98 1021.66 1022.10 1022.22 1022.39 1022.10 1021.86 1021.66 1021.34 1021.15 1020.98 1020.30 1019.98 1019.74 1019.62 1019.66 1019.71 1019.83 1019.91 1019.95 1019.98
1016.83 1017.03 1017.47 1017.95 1018.03 1018.22 1018.66 1019.07 1019.18 1019.30 1019.47 1019.71 1019.62 1019.78 1019.95 1020.18 1020.27 1020.27 1020.59 1020.95 1021.10 1021.47 1022.03 1022.42 1022.74 1022.74 1022.34 1022.03 1021.74 1021.51 1021.42 1021.34 1020.54 1020.15 1019.98 1019.95 1019.86 1019.91 1019.98 1020.03 1020.03 1020.07
1017.62 1017.74 1018.03 1018.42 1018.42 1018.54 1018.95 1019.34 1019.59 1019.74 1019.91 1019.95 1019.95 1020.18 1020.34 1020.51 1020.66 1020.66 1020.95 1021.34 1021.59 1021.74 1022.07 1022.42 1022.86 1022.95 1022.39 1021.86 1021.78 1021.66 1021.51 1021.15 1020.59 1020.18 1020.10 1019.95 1019.86 1019.83 1019.95 1019.91 1019.95 1020.07
1018.15 1018.39 1018.71 1018.83 1018.91 1019.03 1019.18 1019.30 1019.54 1019.78 1019.91 1019.95 1020.18 1020.42 1020.62 1020.83 1021.07 1021.15 1021.10 1021.34 1021.74 1022.03 1022.30 1022.62 1022.78 1023.07 1022.86 1022.03 1021.54 1021.42 1021.39 1021.15 1020.66 1020.42 1020.18 1020.10 1020.07 1020.07 1020.07 1020.03 1020.10 1020.30
1019.03 1019.07 1019.30 1019.42 1019.51 1019.71 1019.91 1019.86 1019.83 1019.78 1019.71 1019.66 1019.91 1020.30 1020.66 1021.07 1021.22 1021.27 1021.42 1021.59 1021.83 1021.98 1022.34 1022.95 1023.15 1023.10 1022.07 1021.59 1021.74 1022.15 1022.34 1021.71 1020.98 1020.59 1020.54 1020.74 1020.51 1020.39 1020.51 1020.42 1021.07 1021.27
1019.86 1019.98 1020.22 1020.15 1020.18 1020.39 1020.54 1020.51 1020.47 1020.42 1020.39 1020.39 1020.54 1020.83 1021.22 1021.34 1021.34 1021.51 1021.74 1021.98 1022.15 1022.30 1022.39 1022.27 1022.34 1022.62 1022.66 1022.59 1022.74 1022.98 1022.71 1021.86 1021.30 1020.98 1020.86 1020.98 1020.98 1020.83 1020.71 1020.66 1020.98 1021.91
1020.10 1020.30 1020.51 1020.71 1020.83 1020.83 1020.74 1020.78 1020.83 1020.86 1021.07 1021.10 1021.15 1021.18 1021.51 1021.95 1022.18 1022.22 1022.51 1022.71 1022.66 1022.54 1022.54 1022.34 1022.51 1023.07 1023.51 1023.47 1023.47 1023.34 1023.10 1022.47 1021.91 1021.86 1021.86 1021.74 1021.54 1021.54 1021.42 1021.30 1021.30 1021.98
Thickness
5639 5636 5634 5633 5635 5637 5637 5636 5636 5637 5638 5640 5640 5639 5640 5640 5640 5641 5641 5641 5642 5642 5641 5641 5641 5640 5641 5641 5641 5642 5643 5642 5642 5642 5642 5641 5638 5637 5636 5634 5635 5635
5638 5636 5634 5633 5634 5635 5635 5635 5635 5635 5636 5638 5639 5639 5639 5638 5638 5638 5638 5639 5640 5640 5640 5639 5638 5638 5638 5638 5639 5639 5639 5639 5640 5641 5640 5640 5638 5638 5636 5634 5633 5633
5638 5636 5635 5632 5632 5633 5633 5633 5634 5634 5635 5636 5637 5637 5637 5636 5635 5635 5635 5637 5638 5638 5638 5637 5636 5636 5637 5636 5636 5636 5636 5636 5637 5638 5638 5637 5637 5637 5636 5634 5634 5632
5637 5636 5635 5632 5632 5632 5632 5631 5632 5633 5633 5633 5634 5635 5635 5633 5633 5632 5634 5635 5635 5634 5635 5635 5634 5635 5635 5634 5634 5633 5634 5634 5635 5636 5636 5635 5636 5635 5635 5634 5633 5632
5638 5637 5635 5631 5631 5631 5630 5630 5630 5631 5632 5632 5632 5633 5632 5631 5631 5631 5632 5632 5631 5631 5632 5632 5633 5633 5633 5633 5633 5631 5632 5632 5634 5635 5634 5633 5634 5634 5633 5633 5632 5631
5638 5636 5633 5630 5630 5630 5629 5628 5628 5629 5629 5629 5630 5630 5630 5629 5629 5630 5630 5629 5629 5629 5629 5630 5631 5631 5631 5632 5631 5630 5631 5631 5632 5634 5633 5632 5632 5632 5632 5631 5630 5629
5636 5633 5631 5629 5629 5629 5628 5627 5627 5627 5627 5627 5627 5628 5628 5627 5627 5628 5628 5628 5627 5627 5627 5628 5628 5629 5629 5630 5629 5628 5629 5630 5631 5632 5632 5631 5630 5629 5630 5629 5628 5628
5633 5631 5628 5627 5628 5627 5626 5625 5625 5625 5625 5624 5624 5625 5626 5626 5626 5627 5626 5626 5626 5625 5626 5626 5626 5627 5627 5627 5627 5625 5626 5627 5629 5630 5630 5629 5628 5626 5627 5626 5626 5626
5630 5628 5627 5626 5626 5625 5624 5623 5623 5623 5622 5622 5622 5623 5624 5625 5625 5625 5624 5625 5624 5624 5624 5623 5624 5624 5624 5625 5624 5622 5623 5624 5626 5626 5626 5625 5624 5623 5624 5624 5623 5622
5627 5628 5628 5626 5625 5624 5622 5622 5621 5621 5620 5620 5620 5621 5622 5622 5623 5622 5623 5622 5621 5621 5621 5621 5622 5622 5622 5622 5621 5621 5621 5620 5622 5622 5622 5622 5623 5622 5621 5620 5620 5619
5626 5626 5625 5624 5624 5623 5621 5620 5620 5619 5619 5619 5618 5618 5619 5619 5619 5620 5620 5619 5618 5619 5619 5618 5619 5619 5619 5620 5619 5619 5619 5618 5618 5619 5619 5620 5621 5620 5619 5618 5616 5616
5622 5620 5620 5621 5623 5621 5619 5619 5620 5618 5618 5618 5616 5616 5616 5615 5616 5617 5617 5617 5616 5618 5617 5617 5617 5617 5617 5617 5617 5617 5617 5616 5616 5616 5617 5617 5617 5617 5617 5615 5615 5614
5620 5620 5621 5622 5622 5620 5618 5617 5617 5617 5616 5616 5615 5614 5613 5613 5614 5614 5615 5616 5616 5616 5616 5615 5615 5615 5615 5615 5615 5614 5613 5613 5613 5612 5613 5613 5612 5614 5614 5612 5613 5611
5621 5621 5622 5622 5620 5618 5616 5614 5614 5614 5614 5614 5614 5612 5611 5611 5611 5611 5612 5614 5614 5614 5614 5614 5613 5613 5613 5612 5612 5612 5610 5609 5609 5608 5608 5608 5608 5609 5608 5608 5609 5607
5619 5618 5618 5618 5617 5615 5613 5612 5612 5611 5612 5612 5611 5609 5608 5609 5608 5608 5609 5611 5611 5611 5611 5610 5609 5606 5602 5602 5605 5607 5607 5606 5605 5605 5604 5603 5603 5604 5603 5603 5605 5604
5614 5613 5613 5613 5613 5611 5610 5610 5609 5607 5608 5608 5608 5607 5606 5605 5605 5605 5606 5606 5607 5607 5606 5604 5600 5596 5592 5594 5596 5599 5602 5603 5602 5601 5601 5600 5599 5599 5598 5599 5600 5600
5609 5609 5609 5608 5607 5607 5607 5606 5605 5604 5603 5603 5603 5602 5601 5601 5601 5600 5601 5602 5602 5601 5598 5595 5591 5587 5587 5590 5591 5591 5595 5599 5599 5598 5597 5597 5596 5595 5594 5595 5596 5597
5607 5606 5605 5602 5601 5601 5601 5600 5600 5599 5597 5596 5595 5594 5594 5595 5594 5593 5593 5594 5594 5591 5589 5587 5584 5582 5583 5585 5586 5587 5588 5591 5594 5595 5594 5593 5593 5593 5593 5593 5593 5594
5601 5599 5597 5594 5592 5591 5589 5589 5590 5589 5588 5588 5587 5586 5586 5586 5587 5587 5586 5585 5584 5582 5579 5578 5576 5576 5577 5578 5579 5581 5581 5583 5588 5591 5590 5589 5590 5589 5590 5590 5590 5589
5591 5591 5589 5586 5585 5583 5580 5579 5579 5579 5578 5578 5579 5579 5578 5578 5579 5580 5578 5577 5576 5573 5570 5569 5568 5568 5570 5571 5573 5575 5575 5576 5580 5584 5584 5585 5586 5585 5585 5585 5585 5585
5582 5582 5579 5577 5578 5577 5575 5572 5571 5572 5570 5570 5572 5572 5570 5570 5570 5571 5569 5568 5567 5566 5563 5561 5560 5561 5564 5566 5568 5569 5569 5570 5575 5578 5579 5580 5581 5581 5581 5581 5581 5581
5574 5573 5571 5571 5571 5572 5571 5568 5566 5566 5565 5565 5565 5565 5564 5564 5563 5563 5562 5560 5559 5558 5557 5555 5554 5555 5557 5560 5562 5564 5564 5567 5571 5573 5575 5576 5578 5578 5578 5579 5579 5579
5566 5566 5564 5564 5565 5565 5564 5564 5563 5562 5562 5563 5562 5560 5559 5558 5556 5556 5556 5555 5553 5552 5551 5550 5549 5549 5552 5557 5560 5559 5559 5561 5566 5569 5571 5572 5574 5574 5575 5575 5575 5574
5557 5557 5556 5557 5557 5557 5556 5557 5558 5558 5559 5560 5558 5557 5555 5553 5552 5552 5551 5550 5549 5548 5546 5545 5545 5546 5550 5554 5554 5551 5550 5554 5560 5563 5566 5566 5568 5569 5569 5569 5567 5564
5548 5549 5548 5549 5549 5548 5549 5550 5551 5552 5552 5552 5552 5550 5548 5546 5547 5547 5546 5545 5544 5544 5544 5544 5544 5545 5545 5546 5545 5542 5544 5549 5554 5557 5559 5559 5559 5561 5562 5562 5559 5555
5542 5542 5542 5542 5541 5542 5543 5544 5544 5544 5544 5544 5544 5544 5542 5540 5540 5540 5539 5539 5539 5539 5539 5541 5541 5539 5537 5536 5537 5537 5539 5544 5547 5548 5549 5550 5551 5553 5553 5554 5553 5549